• Em Portugal
  • Lista de países
  • Para 7 dias
  • Temperatura da água
  • Mapas de satélite
  • Mapa do tempo
  • Widgets de tempo
  • user-avatar
    Iniciar Sessão

    Previsão horária em Misrata

    Hoje, 18 Agosto, Sábado

    Tempo Temperatura Precipitação Vento Pressão Humidade
    00:00 +30°C° 0 mm 3 m/s 759 mmHg 64%
    01:00 +29°C° 0 mm 3 m/s 759 mmHg 66%
    02:00 +29°C° 0 mm 2 m/s 759 mmHg 67%
    03:00 +29°C° 0 mm 2 m/s 758 mmHg 68%
    04:00 +28°C° 0 mm 2 m/s 758 mmHg 69%
    05:00 +29°C° 0 mm 2 m/s 758 mmHg 67%
    06:00 +29°C° 0 mm 1 m/s 759 mmHg 66%
    07:00 +29°C° 0 mm 1 m/s 759 mmHg 64%
    08:00 +30°C° 0 mm 1 m/s 759 mmHg 57%
    09:00 +32°C° 0 mm 2 m/s 759 mmHg 51%
    10:00 +34°C° 0 mm 2 m/s 759 mmHg 44%
    11:00 +35°C° 0 mm 2 m/s 759 mmHg 40%
    12:00 +36°C° 0 mm 3 m/s 759 mmHg 36%
    13:00 +38°C° 0 mm 4 m/s 759 mmHg 32%
    14:00 +38°C° 0 mm 4 m/s 758 mmHg 33%
    15:00 +37°C° 0 mm 5 m/s 758 mmHg 35%
    16:00 +38°C° 0 mm 6 m/s 758 mmHg 36%
    17:00 +36°C° 0 mm 6 m/s 758 mmHg 41%
    18:00 +34°C° 0 mm 5 m/s 758 mmHg 45%
    19:00 +33°C° 0 mm 5 m/s 758 mmHg 50%
    20:00 +32°C° 0 mm 4 m/s 759 mmHg 52%
    21:00 +32°C° 0 mm 4 m/s 759 mmHg 55%
    22:00 +30°C° 0 mm 3 m/s 760 mmHg 57%
    23:00 +30°C° 0 mm 3 m/s 760 mmHg 59%

    Amanhã, 19 Agosto, Domingo

    Tempo Temperatura Precipitação Vento Pressão Humidade
    00:00 +30°C° 0 mm 2 m/s 760 mmHg 60%
    01:00 +29°C° 0 mm 1 m/s 759 mmHg 61%
    02:00 +29°C° 0 mm 1 m/s 759 mmHg 63%
    03:00 +29°C° 0 mm 1 m/s 759 mmHg 64%
    04:00 +28°C° 0 mm 1 m/s 758 mmHg 66%
    05:00 +28°C° 0 mm 1 m/s 759 mmHg 65%
    06:00 +29°C° 0 mm 1 m/s 759 mmHg 64%
    07:00 +29°C° 0 mm 1 m/s 759 mmHg 63%
    08:00 +30°C° 0 mm 1 m/s 759 mmHg 57%
    09:00 +31°C° 0 mm 1 m/s 760 mmHg 50%
    10:00 +34°C° 0 mm 2 m/s 760 mmHg 44%
    11:00 +35°C° 0 mm 3 m/s 759 mmHg 39%
    12:00 +36°C° 0 mm 3 m/s 759 mmHg 35%
    13:00 +38°C° 0 mm 4 m/s 759 mmHg 30%
    14:00 +37°C° 0 mm 5 m/s 759 mmHg 31%
    15:00 +37°C° 0 mm 5 m/s 758 mmHg 32%
    16:00 +38°C° 0 mm 6 m/s 758 mmHg 34%
    17:00 +35°C° 0 mm 5 m/s 758 mmHg 39%
    18:00 +34°C° 0 mm 5 m/s 758 mmHg 45%
    19:00 +32°C° 0 mm 5 m/s 758 mmHg 51%
    20:00 +32°C° 0 mm 4 m/s 758 mmHg 54%
    21:00 +31°C° 0 mm 3 m/s 758 mmHg 57%
    22:00 +30°C° 0 mm 3 m/s 759 mmHg 60%
    23:00 +30°C° 0 mm 3 m/s 758 mmHg 62%

    Depois de amanhã, 20 Agosto, Segunda-feira

    Tempo Temperatura Precipitação Vento Pressão Humidade
    00:00 +29°C° 0 mm 3 m/s 758 mmHg 63%
    01:00 +29°C° 0 mm 2 m/s 757 mmHg 64%
    02:00 +29°C° 0 mm 2 m/s 757 mmHg 66%
    03:00 +28°C° 0 mm 1 m/s 757 mmHg 68%
    04:00 +28°C° 0 mm 1 m/s 756 mmHg 69%
    05:00 +28°C° 0 mm 1 m/s 757 mmHg 68%
    06:00 +29°C° 0 mm 1 m/s 757 mmHg 66%
    07:00 +29°C° 0 mm 2 m/s 758 mmHg 65%
    08:00 +30°C° 0 mm 2 m/s 758 mmHg 59%
    09:00 +32°C° 0 mm 2 m/s 758 mmHg 52%
    10:00 +34°C° 0 mm 2 m/s 758 mmHg 46%
    11:00 +35°C° 0 mm 2 m/s 758 mmHg 42%
    12:00 +36°C° 0 mm 2 m/s 757 mmHg 39%
    13:00 +37°C° 0 mm 2 m/s 757 mmHg 36%
    14:00 +37°C° 0 mm 3 m/s 757 mmHg 37%
    15:00 +37°C° 0 mm 4 m/s 756 mmHg 37%
    16:00 +37°C° 0 mm 5 m/s 756 mmHg 38%
    17:00 +36°C° 0,1 mm 5 m/s 756 mmHg 44%
    18:00 +34°C° 0,1 mm 5 m/s 756 mmHg 50%
    19:00 +33°C° 0,1 mm 5 m/s 756 mmHg 56%
    20:00 +32°C° 0 mm 4 m/s 757 mmHg 57%
    21:00 +32°C° 0 mm 4 m/s 757 mmHg 58%
    22:00 +32°C° 0 mm 4 m/s 758 mmHg 59%
    23:00 +30°C° 0 mm 4 m/s 757 mmHg 60%

    21 Agosto, Terça-feira

    Tempo Temperatura Precipitação Vento Pressão Humidade
    00:00 +30°C° 0 mm 3 m/s 757 mmHg 62%
    01:00 +30°C° 0 mm 3 m/s 757 mmHg 63%
    02:00 +30°C° 0 mm 2 m/s 757 mmHg 64%
    03:00 +29°C° 0 mm 2 m/s 757 mmHg 64%
    04:00 +29°C° 0 mm 2 m/s 757 mmHg 65%
    05:00 +29°C° 0,1 mm 2 m/s 757 mmHg 65%
    06:00 +29°C° 0,1 mm 2 m/s 757 mmHg 65%
    07:00 +29°C° 0,1 mm 2 m/s 758 mmHg 64%
    08:00 +30°C° 0 mm 2 m/s 758 mmHg 60%
    09:00 +31°C° 0 mm 2 m/s 758 mmHg 56%
    10:00 +32°C° 0 mm 2 m/s 758 mmHg 52%
    11:00 +32°C° 0,2 mm 2 m/s 758 mmHg 50%
    12:00 +34°C° 0,2 mm 3 m/s 758 mmHg 48%
    13:00 +34°C° 0,2 mm 3 m/s 757 mmHg 47%
    14:00 +34°C° 0,2 mm 4 m/s 757 mmHg 47%
    15:00 +34°C° 0,2 mm 4 m/s 757 mmHg 48%
    16:00 +34°C° 0,2 mm 5 m/s 757 mmHg 48%
    17:00 +33°C° 0 mm 5 m/s 757 mmHg 50%
    18:00 +33°C° 0 mm 5 m/s 757 mmHg 53%
    19:00 +32°C° 0 mm 5 m/s 757 mmHg 55%
    20:00 +32°C° 0 mm 4 m/s 758 mmHg 56%
    21:00 +30°C° 0 mm 4 m/s 758 mmHg 57%
    22:00 +30°C° 0 mm 4 m/s 759 mmHg 58%
    23:00 +30°C° 0 mm 3 m/s 758 mmHg 60%

    22 Agosto, Quarta-feira

    Tempo Temperatura Precipitação Vento Pressão Humidade
    00:00 +29°C° 0 mm 2 m/s 758 mmHg 61%
    01:00 +29°C° 0 mm 1 m/s 758 mmHg 62%
    02:00 +29°C° 0 mm 1 m/s 758 mmHg 63%
    03:00 +28°C° 0 mm 1 m/s 758 mmHg 64%
    04:00 +28°C° 0 mm 1 m/s 758 mmHg 66%
    05:00 +28°C° 0 mm 1 m/s 758 mmHg 65%
    06:00 +29°C° 0 mm 2 m/s 759 mmHg 64%
    07:00 +29°C° 0 mm 2 m/s 759 mmHg 63%
    08:00 +30°C° 0 mm 2 m/s 759 mmHg 58%
    09:00 +31°C° 0 mm 2 m/s 759 mmHg 52%
    10:00 +33°C° 0 mm 3 m/s 759 mmHg 47%
    11:00 +34°C° 0 mm 3 m/s 759 mmHg 43%
    12:00 +35°C° 0 mm 3 m/s 759 mmHg 39%
    13:00 +36°C° 0 mm 3 m/s 759 mmHg 36%
    14:00 +36°C° 0 mm 4 m/s 758 mmHg 38%
    15:00 +35°C° 0 mm 5 m/s 758 mmHg 40%
    16:00 +35°C° 0 mm 6 m/s 758 mmHg 42%
    17:00 +34°C° 0 mm 6 m/s 758 mmHg 45%
    18:00 +33°C° 0 mm 6 m/s 758 mmHg 49%
    19:00 +32°C° 0 mm 6 m/s 759 mmHg 52%
    20:00 +30°C° 0 mm 6 m/s 759 mmHg 54%
    21:00 +30°C° 0 mm 5 m/s 759 mmHg 56%
    22:00 +30°C° 0 mm 5 m/s 759 mmHg 57%
    23:00 +29°C° 0 mm 4 m/s 759 mmHg 59%

    23 Agosto, Quinta-feira

    Tempo Temperatura Precipitação Vento Pressão Humidade
    00:00 +29°C° 0 mm 4 m/s 759 mmHg 60%
    01:00 +29°C° 0 mm 3 m/s 759 mmHg 62%
    02:00 +29°C° 0 mm 3 m/s 759 mmHg 63%
    03:00 +28°C° 0 mm 2 m/s 758 mmHg 64%
    04:00 +28°C° 0 mm 2 m/s 758 mmHg 65%
    05:00 +28°C° 0 mm 3 m/s 758 mmHg 64%
    06:00 +29°C° 0 mm 3 m/s 759 mmHg 63%
    07:00 +29°C° 0 mm 3 m/s 759 mmHg 62%
    08:00 +30°C° 0 mm 3 m/s 759 mmHg 56%
    09:00 +31°C° 0 mm 3 m/s 759 mmHg 50%
    10:00 +33°C° 0 mm 3 m/s 759 mmHg 44%
    11:00 +34°C° 0 mm 4 m/s 759 mmHg 41%
    12:00 +35°C° 0 mm 4 m/s 759 mmHg 37%
    13:00 +36°C° 0 mm 4 m/s 758 mmHg 34%
    14:00 +36°C° 0 mm 5 m/s 758 mmHg 34%
    15:00 +36°C° 0 mm 5 m/s 758 mmHg 35%
    16:00 +35°C° 0 mm 5 m/s 758 mmHg 35%
    17:00 +34°C° 0 mm 5 m/s 758 mmHg 40%
    18:00 +33°C° 0 mm 5 m/s 758 mmHg 45%
    19:00 +32°C° 0 mm 5 m/s 758 mmHg 49%
    20:00 +32°C° 0 mm 5 m/s 758 mmHg 53%
    21:00 +30°C° 0 mm 4 m/s 758 mmHg 56%
    22:00 +30°C° 0 mm 4 m/s 758 mmHg 59%
    23:00 +29°C° 0 mm 4 m/s 758 mmHg 61%
    Mostrar mais